Theta_e
326 326 329 332 334 333 330 330 330 329 332 331 330 330 330 330 329 328 329 328 328 328 328 326 326 326 327 328 329 329 329 329 327 326 323 324 323 322 324 323 323 324 323 322 322 318 316 314 316 322 322 323 323 323 324 325 326 328 329 329 329 329 328
327 327 330 334 332 330 329 329 329 329 330 332 330 328 328 329 330 328 328 327 326 326 327 326 326 327 326 327 328 327 327 327 327 326 324 322 323 320 320 319 320 320 320 321 321 320 317 315 315 316 317 321 322 323 324 324 326 328 329 328 329 330 330
327 327 329 331 330 329 328 327 328 328 329 329 328 328 327 328 328 328 327 326 325 326 327 325 326 326 327 328 328 326 327 324 324 324 322 321 321 321 320 318 317 318 316 317 318 318 319 319 314 315 317 316 315 319 322 323 323 329 328 328 328 329 329
327 328 330 328 328 327 326 327 327 326 327 326 325 325 326 327 326 327 325 325 325 327 326 325 324 325 327 328 325 324 324 322 321 322 320 320 319 319 318 318 318 318 316 315 316 317 317 315 315 315 316 317 316 316 320 323 324 327 329 328 327 327 328
329 329 328 326 327 326 327 327 327 325 325 324 323 322 323 325 325 323 324 324 325 325 325 325 325 327 328 326 323 323 323 321 321 321 319 318 318 318 317 318 319 319 318 317 318 318 317 317 316 315 315 317 317 317 321 321 323 326 326 326 327 325 328
329 328 326 326 326 324 325 326 325 323 322 322 320 321 321 324 324 322 322 323 325 324 323 324 326 327 325 323 322 322 321 319 318 319 318 317 318 317 316 317 319 317 317 319 320 318 318 318 317 314 315 318 315 315 318 319 319 323 324 325 323 321 325
327 326 325 325 325 325 325 324 323 322 321 320 320 321 324 325 323 323 323 324 324 322 322 324 324 324 324 321 320 320 320 318 318 318 317 317 317 317 316 314 315 315 315 318 319 319 317 317 316 315 314 315 315 314 316 317 320 315 317 322 321 319 321
324 325 325 325 324 324 324 323 322 321 321 321 322 324 327 325 324 321 322 322 321 320 320 321 322 321 320 320 319 318 319 319 317 317 316 315 315 314 314 314 314 314 314 316 317 316 317 317 317 317 315 311 311 312 312 314 317 314 313 316 319 316 318
325 325 324 324 323 323 322 322 321 321 320 321 324 324 324 323 322 321 321 320 320 320 320 320 319 319 318 317 316 317 317 320 316 315 314 314 313 313 312 313 312 312 313 314 315 314 314 316 319 318 316 315 309 305 310 311 314 313 315 313 315 315 315
324 323 322 323 323 322 322 322 322 322 322 322 324 324 322 320 319 319 319 319 319 318 319 320 319 317 317 316 316 315 315 316 316 314 314 312 312 312 311 310 310 310 311 312 311 311 311 312 316 317 317 316 312 307 306 306 311 311 313 314 310 311 312
323 323 323 323 323 322 321 322 322 321 321 322 323 322 319 319 319 325 319 318 317 317 318 318 317 316 316 315 315 315 315 315 314 313 313 312 311 311 310 309 309 308 309 309 308 308 308 309 310 311 312 315 316 309 308 305 307 312 312 312 312 308 310
324 323 322 322 322 321 321 321 322 320 320 319 319 318 319 319 320 321 319 317 316 316 316 316 316 315 315 314 315 314 315 314 312 311 311 311 311 310 309 308 308 308 308 307 307 306 305 306 307 308 309 311 313 314 310 306 303 308 313 308 310 309 308
323 322 321 320 320 320 321 321 321 318 316 318 318 320 319 318 317 318 317 316 316 315 315 315 315 315 314 313 314 314 314 313 311 310 309 310 311 309 308 307 307 307 307 307 306 305 304 304 306 306 307 308 308 311 310 309 303 303 308 306 307 306 306
320 321 321 321 321 321 321 320 319 317 318 317 318 319 317 316 315 316 316 316 315 313 313 313 314 313 313 313 314 313 312 312 310 309 309 308 309 308 307 306 306 307 307 305 305 304 303 303 304 305 306 306 306 308 306 307 302 300 303 305 304 304 304
321 321 320 320 320 320 320 318 317 317 316 317 317 316 316 316 315 315 314 313 314 313 313 313 312 313 312 312 313 314 312 310 309 308 308 307 307 308 307 306 305 306 306 304 304 303 302 302 302 302 303 304 304 305 305 304 302 299 298 301 301 303 302
320 320 320 320 319 319 318 316 316 316 315 315 316 315 314 314 314 313 312 311 310 310 310 309 310 311 311 311 310 311 311 310 309 308 307 307 307 307 306 306 305 305 305 303 303 303 302 301 301 301 301 303 303 304 304 304 301 298 297 298 300 300 300
319 319 318 319 318 318 317 315 316 315 316 314 314 314 314 313 312 310 309 308 307 306 306 307 308 309 310 310 310 310 309 309 308 308 307 306 306 306 305 305 305 304 304 302 302 302 302 301 300 300 301 302 302 303 303 303 302 299 298 297 298 299 300
318 318 318 318 319 319 318 317 316 314 314 313 313 312 312 311 309 308 307 306 304 304 304 304 306 307 309 309 309 309 307 306 305 306 307 307 309 305 305 304 304 304 302 301 301 300 302 300 300 300 300 301 301 302 302 302 301 300 298 297 297 299 300
317 317 318 318 318 318 318 316 314 314 313 312 311 310 309 309 308 306 305 304 303 302 302 302 303 305 307 307 307 307 307 305 304 303 303 305 305 305 304 304 304 304 302 300 300 300 300 301 300 300 300 300 300 301 300 300 300 299 298 298 297 297 298
317 317 317 317 317 316 315 314 314 313 312 311 310 309 308 307 307 306 305 303 302 301 300 300 301 302 305 306 305 305 305 305 304 303 303 302 304 305 304 304 304 304 302 300 299 299 299 300 301 299 301 300 300 299 299 299 299 299 298 297 297 297 297
317 316 315 314 313 313 313 313 312 312 312 310 309 307 307 306 306 305 303 302 302 301 299 298 299 300 303 304 304 304 304 304 303 302 302 302 302 303 304 303 302 303 303 301 300 299 299 299 300 299 299 300 299 299 298 298 298 298 298 297 297 296 297
316 316 315 312 312 312 313 312 312 311 310 309 309 307 306 305 304 303 302 301 300 299 298 298 298 299 301 303 303 303 303 303 303 302 301 301 301 301 301 303 303 303 306 307 303 302 302 303 300 298 298 299 300 298 298 298 298 297 297 297 296 297 296
315 315 313 311 311 311 311 311 310 309 308 307 306 306 305 304 303 302 301 299 298 298 297 297 298 298 301 303 301 301 301 301 301 301 301 300 300 300 300 299 303 306 305 305 302 299 298 299 301 301 297 298 298 298 297 297 297 297 297 296 296 296 295
314 313 312 311 311 312 311 310 309 308 307 306 306 305 304 303 302 302 300 298 297 296 296 296 295 294 296 300 301 299 298 298 298 298 298 298 298 298 298 299 298 302 302 302 300 298 298 298 297 296 297 298 301 299 297 297 297 297 297 296 296 296 295
313 313 313 312 311 311 310 309 308 307 306 305 305 304 303 302 301 300 299 297 296 295 294 295 293 294 295 296 299 299 297 297 297 296 296 296 297 297 297 297 297 298 299 300 299 297 301 301 298 296 296 296 296 296 297 298 298 297 297 296 296 296 295
312 312 312 311 311 310 309 308 307 306 305 304 303 302 301 301 299 299 297 295 294 294 293 294 293 293 294 296 296 298 296 296 295 295 295 295 295 295 295 296 296 296 296 301 300 296 299 301 302 301 300 299 301 299 295 295 296 300 297 297 296 296 296
312 311 311 310 309 309 308 307 306 305 304 303 302 301 300 299 299 298 296 295 293 293 292 294 292 293 294 295 296 296 296 295 295 294 294 294 294 294 295 294 294 294 294 295 295 296 298 299 300 300 299 299 300 302 299 297 297 297 299 300 298 296 297
311 311 310 309 308 307 306 306 305 304 303 302 300 299 298 298 298 298 296 295 294 293 292 292 292 292 294 296 296 297 297 296 295 294 294 294 294 294 294 294 294 293 293 293 294 295 297 297 297 298 297 297 298 299 299 298 298 298 298 299 299 298 298
310 310 309 308 307 306 305 305 304 303 302 301 300 299 298 298 297 296 296 294 293 291 291 291 291 292 293 296 298 301 297 296 294 294 294 294 294 294 294 293 293 292 293 293 294 292 295 298 296 296 296 296 297 297 299 303 298 297 298 297 299 299 298
309 309 308 307 306 305 304 303 302 302 301 299 298 297 297 297 297 296 295 294 292 290 291 292 291 292 292 296 298 299 298 297 295 294 293 293 294 295 296 295 292 292 292 292 293 291 292 297 295 295 295 294 295 296 297 300 300 297 295 294 294 295 294
308 308 307 306 305 304 303 303 302 302 300 298 296 296 296 296 296 296 294 293 292 291 290 292 292 292 293 296 299 298 297 297 295 295 294 293 294 293 297 302 300 292 292 292 291 291 292 296 294 293 293 293 294 294 295 298 301 300 297 296 295 294 294
308 307 306 305 304 303 303 302 302 301 299 298 297 297 298 296 296 296 294 294 298 292 290 293 292 293 294 296 299 298 298 295 294 293 293 292 293 293 293 296 299 295 293 292 291 291 291 295 293 292 292 292 293 293 294 296 297 296 297 296 297 298 297
308 306 305 304 303 302 302 301 300 299 298 298 297 297 297 295 294 293 293 292 295 292 291 291 292 292 294 295 296 298 297 295 294 293 293 294 293 291 292 293 296 292 291 291 291 291 291 292 294 292 292 291 291 292 295 297 298 297 296 296 295 296 296
306 305 304 303 302 302 300 300 299 298 298 297 296 294 294 293 292 291 290 291 291 292 293 291 292 292 293 294 294 296 296 295 294 293 292 292 291 292 291 292 292 294 291 291 290 291 291 292 293 294 292 291 291 293 296 295 297 298 295 296 296 296 296
306 305 303 303 301 300 300 300 299 298 297 295 294 293 293 293 292 290 290 291 290 290 294 295 292 292 292 293 293 294 296 295 295 294 293 292 290 290 290 291 291 294 291 290 290 291 291 291 292 295 292 291 292 292 296 296 295 295 294 294 294 293 294
305 304 303 302 301 300 300 299 298 297 296 295 294 293 293 292 291 290 290 290 290 290 290 293 293 293 292 292 293 293 293 294 293 296 292 291 290 291 291 291 293 296 290 290 290 291 291 292 293 292 291 291 292 292 294 294 294 293 292 292 293 292 292
304 302 302 301 300 299 299 298 298 297 296 295 294 293 292 293 291 290 289 289 290 289 289 289 292 293 292 292 292 293 292 292 293 293 293 292 290 291 291 290 292 291 290 290 290 292 292 292 292 291 291 292 292 292 293 292 292 292 291 291 290 291 291
Wind_Speed
7 7 5 5 7 9 8 7 5 5 5 3 4 5 4 5 5 6 6 7 7 6 5 6 5 5 6 6 6 6 6 6 6 6 6 7 7 7 7 7 6 5 5 4 5 7 6 10 12 8 4 8 9 7 7 9 9 8 6 6 5 5 3
6 6 4 4 7 8 9 6 6 5 4 4 5 5 5 5 6 6 6 7 7 5 5 6 6 6 6 6 6 7 7 7 6 6 7 7 7 7 8 8 6 6 5 4 5 6 4 8 7 10 13 11 9 7 9 9 8 6 4 5 6 6 5
3 3 3 7 7 7 8 6 6 6 5 6 6 5 6 6 6 6 7 7 5 5 6 6 5 6 6 6 6 6 6 7 6 6 7 6 6 6 6 6 7 8 8 7 7 9 5 3 8 9 9 11 12 11 8 10 8 6 6 7 8 9 7
5 4 6 7 7 7 7 7 6 5 6 6 6 5 5 6 6 6 6 5 5 5 5 5 5 5 5 5 5 6 6 7 6 6 7 6 5 5 6 6 7 8 7 7 8 8 8 8 9 8 8 7 8 9 9 9 6 7 9 8 11 11 10
6 5 6 8 7 6 7 7 5 6 6 5 4 4 5 6 6 5 5 5 5 4 5 5 5 5 5 5 6 6 6 6 6 6 5 7 8 6 7 6 5 5 5 5 5 6 6 7 7 8 8 9 6 5 6 7 6 7 11 9 11 12 11
5 5 5 7 9 9 8 7 6 6 5 6 4 5 4 6 6 6 5 4 3 4 3 5 4 5 6 7 7 6 6 7 7 7 7 8 8 8 7 7 5 6 6 5 4 5 4 5 5 7 8 7 6 7 6 6 6 5 10 9 12 12 12
6 6 7 9 9 8 8 7 6 6 6 4 4 6 5 5 5 5 3 2 2 3 3 4 6 6 6 6 6 6 5 6 7 7 8 8 7 7 6 6 7 7 7 7 6 5 7 7 6 7 7 7 5 5 4 6 7 10 10 9 10 11 11
7 7 7 8 9 9 8 9 6 5 6 4 5 5 4 4 4 3 2 1 1 2 3 4 7 7 6 5 5 5 5 5 7 7 8 9 9 10 9 8 7 8 8 8 7 9 8 7 5 6 7 11 10 7 7 5 5 11 9 6 8 12 11
7 8 8 8 8 8 8 8 6 5 5 4 6 4 4 3 3 3 1 0 2 4 5 6 7 6 4 4 4 4 5 4 6 9 8 8 9 9 9 9 8 9 9 9 9 9 9 8 6 6 6 6 9 10 7 7 6 7 10 9 6 11 12
8 9 9 9 9 8 7 7 7 5 4 4 3 4 5 4 2 2 2 2 5 7 7 6 6 4 4 4 4 4 6 6 8 8 7 9 8 8 9 10 9 9 9 9 9 9 9 9 9 9 8 5 5 6 8 8 8 9 9 10 8 10 13
9 9 9 9 8 8 7 6 6 6 4 4 4 3 3 2 1 2 4 5 5 7 6 5 4 4 4 4 3 4 4 7 8 7 7 8 8 7 8 9 8 8 8 9 9 10 10 9 9 9 9 8 4 6 4 7 6 7 8 7 7 10 13
8 8 7 8 8 9 8 6 5 3 4 1 1 1 1 1 1 4 5 5 6 5 5 4 4 3 2 3 4 6 6 7 7 8 7 7 7 7 8 9 9 9 8 9 9 10 10 10 9 8 9 9 9 5 4 5 6 7 8 10 8 11 12
7 7 7 8 8 8 6 6 5 4 2 1 1 1 2 1 5 7 5 6 5 4 4 3 2 1 2 3 4 6 7 8 7 7 7 7 6 8 9 10 10 9 9 8 9 10 10 10 9 8 9 8 9 9 8 5 8 7 9 10 9 11 13
8 9 9 8 8 6 6 6 4 3 2 2 2 4 4 5 5 6 6 5 5 4 3 4 3 2 3 4 5 6 7 8 7 6 6 7 7 8 9 10 10 10 9 9 9 9 10 10 10 9 8 9 9 10 10 7 9 8 8 8 8 9 11
9 9 9 8 8 7 5 3 1 1 1 1 7 7 8 5 6 8 9 9 8 8 7 6 4 6 6 5 5 6 7 7 7 6 5 7 8 7 7 9 10 10 9 9 9 10 9 10 10 10 10 9 9 9 11 10 9 9 10 8 10 9 10
8 9 9 7 8 6 4 1 2 0 3 4 6 7 6 7 8 9 9 9 8 7 7 6 5 5 6 5 6 6 6 6 6 6 7 7 6 5 7 8 9 8 8 9 8 8 9 10 9 10 10 9 9 10 11 11 9 9 10 8 9 11 11
10 8 8 7 8 5 4 3 0 3 4 7 8 7 9 8 9 10 9 9 8 7 7 7 7 6 6 7 6 7 6 5 4 5 6 6 7 6 6 6 7 7 7 8 8 7 7 9 10 9 10 9 9 10 9 8 9 6 7 9 10 10 10
9 8 7 6 6 5 3 1 2 5 9 8 7 9 9 8 9 10 9 8 7 7 6 6 7 7 6 7 7 7 8 7 6 5 5 6 7 6 6 6 5 5 6 8 7 7 6 8 9 9 9 9 9 8 7 7 7 7 8 10 8 8 8
9 8 7 5 5 4 4 3 4 7 8 9 9 10 10 8 8 9 8 7 7 6 6 6 7 6 6 6 7 6 6 7 7 7 5 5 6 6 7 7 6 5 6 6 6 6 6 6 7 10 9 8 7 6 6 6 6 8 8 8 9 10 11
8 6 5 4 3 4 4 4 6 7 8 10 10 9 9 10 8 8 7 7 7 7 7 7 7 7 6 6 7 7 7 6 6 6 6 5 5 7 8 7 7 6 6 5 5 6 6 7 6 8 8 7 5 6 7 6 6 8 9 9 9 9 9
7 5 4 4 3 3 3 5 8 7 8 10 10 10 9 9 7 7 6 6 6 6 8 8 7 6 6 7 7 7 7 6 6 6 7 7 6 5 5 7 8 7 5 5 5 5 4 6 6 6 6 6 6 6 6 6 7 7 9 9 10 10 10
7 8 6 3 2 3 6 7 6 7 8 8 8 10 10 9 9 8 6 6 7 7 9 7 5 5 6 7 7 8 7 7 7 7 7 7 8 9 8 6 7 8 11 12 12 8 7 3 4 5 6 5 5 5 5 6 6 6 7 8 9 9 10
8 7 4 4 4 6 6 8 9 9 9 9 9 9 9 8 7 7 7 7 7 7 6 5 5 11 9 6 7 7 7 7 7 7 7 7 8 7 7 7 7 16 15 14 12 11 10 7 3 1 2 4 5 5 5 6 7 6 7 9 10 9 12
9 7 5 5 5 7 8 8 8 9 9 9 10 9 8 8 7 6 6 7 7 6 6 5 11 12 12 12 8 7 7 7 7 8 7 7 7 7 6 6 6 10 12 11 9 12 11 9 6 5 6 5 5 4 5 8 7 6 7 8 8 9 10
10 7 6 6 6 7 9 9 9 8 9 9 9 9 9 7 7 6 6 6 6 6 6 7 10 11 12 13 11 8 7 7 7 7 7 7 6 6 6 7 7 6 8 10 9 10 11 13 8 4 7 9 8 8 5 5 6 6 6 8 9 10 9
9 8 8 7 8 8 9 9 9 9 9 8 9 10 9 8 7 5 6 6 6 5 4 7 8 10 11 13 13 10 7 7 8 7 7 7 7 7 7 8 8 9 8 15 11 9 7 9 11 9 5 5 5 11 12 13 11 6 4 7 9 10 10
9 8 8 9 9 9 10 9 8 8 8 8 9 8 8 8 6 5 5 5 5 4 5 7 8 9 9 12 13 10 8 9 8 8 8 7 7 7 7 8 8 9 9 10 10 10 9 9 8 9 8 7 6 7 10 11 12 12 7 6 8 10 8
7 9 9 9 9 10 10 9 9 8 8 8 8 8 8 7 5 5 5 4 5 5 4 7 8 8 9 11 13 10 8 8 8 8 7 7 7 8 7 7 7 8 8 9 9 11 9 8 8 8 8 8 6 6 5 5 6 6 5 5 8 9 8
9 9 10 9 10 10 9 9 9 8 8 7 7 7 7 7 6 6 5 4 5 4 3 8 7 8 8 11 13 7 8 8 8 8 7 6 6 6 6 7 7 8 7 8 12 16 13 8 9 8 9 8 8 7 6 6 6 8 7 4 7 9 7
10 9 9 10 10 10 9 9 8 7 8 7 8 7 6 6 6 6 5 4 4 3 3 7 7 8 7 8 9 7 7 7 7 7 7 6 6 6 6 7 7 7 7 7 11 14 15 11 8 9 8 8 7 7 7 8 9 13 13 12 7 14 13
10 9 9 10 10 9 9 8 8 7 8 8 8 8 7 7 6 5 5 4 3 4 3 6 9 9 8 9 9 7 6 7 6 7 6 5 5 6 8 14 10 7 7 7 12 13 13 9 8 8 8 8 9 9 9 7 5 9 13 12 11 9 10
10 10 10 10 9 10 9 8 7 8 8 8 8 7 7 7 6 5 4 4 6 5 4 5 9 12 14 12 8 5 7 7 7 6 6 6 5 6 6 7 11 10 8 10 14 13 12 8 7 6 6 8 9 9 7 5 5 7 6 7 8 7 6
9 10 10 9 9 9 8 9 9 9 8 8 8 7 7 7 7 5 4 3 3 3 5 4 7 13 13 13 12 7 6 8 7 6 6 6 6 5 5 6 7 10 12 13 13 13 12 10 7 7 7 8 8 8 5 8 8 5 5 6 5 6 6
11 10 9 9 9 8 8 9 9 9 8 7 8 8 8 7 7 5 3 2 3 3 3 6 6 12 13 13 14 11 6 8 7 7 6 5 4 5 5 5 5 8 11 11 11 12 11 11 9 7 7 6 5 5 8 8 10 11 6 6 6 6 6
11 9 9 10 10 9 8 8 7 8 8 8 10 9 8 7 6 4 2 2 3 4 4 7 7 11 14 15 14 14 8 5 7 7 6 4 3 3 2 2 3 6 10 10 10 11 12 11 10 7 10 14 16 15 9 6 7 7 7 7 7 6 6
10 9 9 10 10 8 7 9 9 9 9 9 9 9 8 7 6 5 3 2 2 3 4 5 10 9 13 15 16 15 14 10 12 7 6 4 3 1 0 2 3 7 9 9 10 10 11 11 8 8 14 15 15 15 11 7 7 8 7 7 7 6 6
10 8 9 8 8 9 9 9 9 9 8 8 9 9 7 7 6 5 4 3 3 4 4 4 7 10 11 14 14 15 13 12 9 5 4 4 2 0 1 2 4 8 9 7 7 8 11 10 8 11 11 13 14 11 8 8 8 7 7 7 7 7 7
Wind_Direction
130 150 161 133 112 106 103 100 89 76 64 83 50 38 41 42 40 34 39 44 42 37 34 32 20 4 5 1 5 4 10 17 17 24 16 12 16 358 360 4 358 355 5 358 33 355 322 329 331 341 343 342 336 333 331 329 335 332 344 341 324 308 279
135 153 159 126 105 103 99 101 101 94 79 59 63 56 52 42 39 42 46 45 39 26 30 20 10 7 6 3 7 16 24 21 25 28 32 20 15 8 358 2 352 7 7 18 3 0 342 335 335 343 339 339 340 347 346 340 347 3 19 338 325 315 303
130 160 164 117 109 111 112 114 106 105 100 68 55 42 53 49 43 46 50 44 30 25 28 9 4 6 7 18 23 23 30 33 24 33 38 24 20 10 12 351 7 6 12 6 8 354 342 358 339 336 342 342 343 333 339 345 353 14 12 4 356 351 340
157 173 132 115 109 107 115 109 109 109 91 87 69 50 55 60 49 47 46 39 31 27 13 11 7 7 11 29 23 24 36 38 29 33 31 25 15 8 8 14 19 26 9 358 355 356 354 349 343 346 338 342 322 326 337 337 356 23 18 15 18 7 2
150 142 126 124 121 107 100 111 110 90 82 75 70 65 55 64 61 50 41 36 19 11 13 3 11 15 26 28 23 32 42 35 32 32 24 19 15 13 12 5 12 15 8 7 354 352 349 343 338 339 341 331 326 337 322 334 358 30 16 19 23 5 359
140 132 122 99 90 91 99 107 98 94 92 80 73 70 55 65 65 55 44 22 9 9 6 17 12 31 36 31 26 37 51 40 30 26 25 17 15 22 12 1 358 3 350 342 345 349 338 330 335 348 347 331 326 327 338 347 5 15 22 18 25 8 2
94 87 90 94 92 87 86 81 91 101 100 104 96 77 69 78 73 75 55 18 1 360 16 28 38 34 37 42 38 40 48 44 34 32 29 22 21 19 14 5 4 1 355 348 341 339 350 345 350 351 336 335 327 334 331 354 21 21 15 16 23 13 8
95 88 83 85 91 91 89 93 96 103 102 100 80 67 79 92 104 134 151 98 352 349 15 45 45 40 40 42 40 39 46 51 45 40 34 26 24 17 16 13 3 7 1 356 0 0 352 347 344 336 352 1 360 6 2 357 22 46 11 358 13 14 11
97 94 85 81 83 91 92 96 98 97 93 88 86 86 61 108 169 150 134 120 359 25 45 62 59 54 44 44 34 34 43 44 48 46 39 29 25 22 23 14 18 14 8 6 8 4 0 343 336 351 3 15 15 0 358 4 21 26 20 8 1 20 8
92 91 94 92 93 94 95 91 95 92 95 86 122 152 165 189 143 143 129 62 48 41 47 60 67 60 49 37 36 39 48 44 50 46 43 35 24 25 27 25 27 21 16 10 11 9 2 357 353 354 355 11 25 23 6 1 16 5 7 12 7 360 9
100 97 96 99 97 91 82 84 87 79 95 168 176 160 158 167 192 113 93 73 55 55 68 73 72 65 57 32 32 47 54 63 62 51 43 37 28 25 29 32 28 27 13 17 17 12 10 5 4 3 357 352 28 39 21 13 359 8 351 3 19 3 4
96 98 92 90 93 93 89 91 86 142 198 176 146 165 176 205 149 102 93 79 70 67 72 82 87 67 57 45 36 56 56 64 64 58 43 39 29 26 27 29 25 25 15 17 19 17 14 11 6 5 2 0 1 15 21 33 13 4 4 2 5 13 3
97 94 95 96 93 100 109 95 155 191 214 240 260 206 192 151 90 102 104 97 86 73 72 71 94 115 63 55 57 64 63 69 66 60 53 42 36 31 31 31 26 23 15 18 23 19 16 13 10 10 7 4 4 8 7 43 36 8 14 8 1 1 1
90 91 93 94 97 99 100 159 188 204 224 251 215 144 104 78 90 101 109 110 107 98 74 44 46 51 37 54 62 69 73 72 68 59 57 48 40 39 36 36 28 24 18 26 25 22 21 14 13 13 11 12 13 15 13 23 35 16 13 10 3 1 352
100 100 99 102 102 100 158 192 225 293 249 359 82 93 100 105 85 71 60 48 40 34 28 25 38 59 51 47 55 69 78 76 72 64 58 56 47 39 37 38 31 24 20 25 26 29 21 20 17 17 16 14 17 22 20 29 34 23 6 357 4 358 2
104 100 106 105 111 129 194 217 253 244 60 62 67 70 64 59 68 71 65 54 45 37 31 30 16 36 46 50 61 75 79 81 82 76 66 60 55 44 40 39 32 24 18 24 21 22 25 27 24 25 20 17 19 23 27 35 29 24 13 4 359 3 3
100 99 104 117 124 169 194 219 300 82 78 76 81 74 67 66 67 68 68 58 46 41 34 30 30 25 42 47 53 63 66 63 66 77 80 72 65 53 45 42 34 27 19 23 17 14 18 28 31 28 27 21 23 25 27 30 32 30 13 13 8 8 1
113 119 122 133 155 174 203 206 106 85 82 85 83 82 73 66 67 66 66 62 52 45 38 36 38 33 39 52 60 68 67 64 60 63 72 76 72 63 52 48 37 32 27 25 13 15 2 22 30 33 32 26 27 25 28 27 29 26 24 24 8 7 360
121 126 138 161 162 169 174 150 113 86 98 92 82 79 81 71 70 71 67 65 60 53 45 42 42 36 34 51 55 58 64 65 58 54 59 71 72 65 58 47 38 39 34 30 7 8 5 10 22 36 34 28 24 22 22 20 24 26 30 25 17 6 12
122 125 139 150 153 148 150 132 98 103 98 94 91 86 81 81 72 75 69 63 58 54 52 46 41 34 34 45 54 57 57 59 58 52 46 56 68 68 61 51 41 38 43 29 8 4 6 10 16 29 34 26 16 21 22 18 16 28 27 24 19 17 8
125 129 142 159 159 153 115 100 108 107 101 96 93 92 88 88 83 75 70 66 59 58 56 49 38 35 41 48 55 53 57 60 59 52 46 43 47 54 57 56 48 34 40 41 16 344 8 16 8 16 16 30 17 21 25 16 22 26 28 25 22 13 13
133 145 172 153 144 132 124 115 106 101 97 98 95 95 95 91 89 80 70 66 59 53 54 46 37 39 49 50 57 57 52 52 53 53 47 43 42 43 37 29 33 31 27 30 25 14 342 359 36 11 348 18 21 19 20 24 20 29 31 29 24 20 15
143 169 155 156 158 132 110 105 104 101 100 99 98 96 92 89 85 84 79 66 60 57 52 44 40 57 57 68 66 62 58 52 53 51 49 44 41 43 43 33 21 25 25 24 18 9 3 341 329 6 320 337 30 19 18 22 28 29 32 31 27 17 22
158 174 159 161 139 108 103 104 101 98 97 98 97 97 94 90 85 77 74 71 64 59 48 28 43 58 60 65 72 67 66 61 54 54 51 49 45 41 34 31 23 19 19 17 14 12 6 356 322 316 322 345 2 50 20 26 32 30 35 38 28 28 30
167 165 157 149 122 115 110 106 104 102 99 97 97 96 94 91 87 79 74 68 64 59 54 26 52 64 73 74 77 78 74 70 64 59 56 53 49 44 37 33 29 23 19 21 28 11 7 7 4 303 304 318 348 47 59 68 41 33 39 44 38 33 28
158 157 147 130 123 115 108 107 106 103 102 103 98 96 96 92 87 80 73 71 61 45 53 22 54 70 87 93 88 86 77 78 74 67 63 59 52 46 40 35 32 26 14 19 21 13 18 13 11 14 348 348 8 37 23 24 43 61 67 60 55 42 35
152 142 132 126 120 111 109 110 108 105 104 99 101 103 102 102 97 87 80 78 67 47 40 1 44 66 93 111 110 96 87 82 78 72 67 61 55 50 42 43 38 29 20 24 17 12 18 18 15 19 20 16 8 1 14 19 23 47 56 74 67 62 43
141 134 128 125 114 111 116 115 109 106 106 106 107 110 112 111 109 100 91 80 72 51 15 1 37 57 85 113 113 104 95 88 82 75 68 62 60 54 46 44 43 38 28 25 18 17 21 13 20 17 14 11 10 4 359 359 20 32 60 76 79 77 67
139 131 129 122 117 119 119 118 115 111 105 102 99 99 98 103 107 102 93 86 76 51 8 11 34 55 87 124 125 114 106 95 90 81 72 68 62 59 55 48 42 35 28 26 8 15 16 20 26 19 12 4 6 8 9 348 351 50 76 102 105 89 83
135 132 129 124 122 124 122 115 114 113 108 107 104 100 106 103 109 106 96 89 86 59 21 6 30 59 77 120 123 114 111 104 95 89 79 68 59 53 52 50 45 33 23 20 10 19 14 24 29 20 14 10 10 15 9 353 1 32 51 69 90 114 101
133 130 127 123 123 122 117 114 117 114 112 109 102 104 102 96 91 95 100 94 99 87 36 11 35 60 84 113 123 114 113 109 102 97 81 59 51 40 34 38 43 34 22 9 10 24 19 27 33 21 20 19 16 18 11 357 4 38 36 41 58 101 124
131 128 123 123 124 122 120 122 118 110 112 109 111 109 101 98 86 75 90 104 91 85 56 25 36 60 71 81 94 105 106 101 98 91 86 65 46 40 26 20 24 27 23 11 12 15 25 31 42 29 25 29 21 23 1 360 26 44 29 36 23 38 62
127 125 125 122 121 119 119 117 120 119 118 119 119 110 102 96 92 81 67 66 72 83 79 46 45 63 66 74 87 95 101 106 104 96 86 80 54 27 23 16 10 14 16 14 11 11 21 39 46 35 37 36 24 14 339 31 24 34 42 48 34 33 45
124 124 122 124 123 121 123 127 127 125 123 117 111 106 104 100 96 90 74 68 88 66 85 83 58 70 72 77 81 86 87 100 104 97 92 76 69 54 14 2 348 1 10 11 11 11 30 35 43 50 43 45 35 17 31 35 25 27 23 21 30 28 31
123 123 122 123 125 129 132 126 123 123 121 118 116 114 112 110 109 110 104 97 94 86 75 89 85 69 76 77 79 85 88 94 103 102 88 79 60 50 4 351 338 346 2 4 10 23 37 39 41 48 41 39 32 32 34 32 31 28 23 26 28 24 15
125 127 128 130 134 135 129 125 125 125 124 124 121 117 115 120 117 121 124 112 105 95 83 82 90 85 82 83 83 87 95 94 95 102 115 120 141 149 257 323 322 348 357 357 2 21 42 43 45 46 46 43 37 32 33 30 29 27 24 23 29 29 12
125 127 131 132 128 129 129 129 129 131 132 130 128 125 127 121 118 121 131 121 99 87 80 79 81 96 92 90 95 97 100 104 108 122 113 143 171 194 324 326 334 336 344 352 357 8 37 47 50 47 47 46 43 38 36 32 27 24 25 22 20 20 20